Overview Statistics Trail Chart Weather Telemetry Raw packets
 

This is the latest recevied weather packets stored in our database for station/object F1DKL-13. If no packets are shown the sender has not sent any weather packets the latest 10 day(s).

<< 22 23 24 25 26 27 28 >>
Time Temp. Humidity Pressure Rain* Wind** Luminosity Snow
1777541707 19.44° C 44% 1025.8 hPa 0 mm - - -
1777541407 19.44° C 46% 1025.8 hPa 0 mm - - -
1777541107 18.89° C 47% 1025.8 hPa 0 mm - - -
1777540807 18.89° C 49% 1025.8 hPa 0 mm - - -
1777540507 18.33° C 49% 1025.8 hPa 0 mm - - -
1777540207 17.78° C 52% 1024.7 hPa 0 mm - - -
1777539907 17.78° C 54% 1024.7 hPa 0 mm - - -
1777539607 17.22° C 53% 1024.7 hPa 0 mm - - -
1777539307 16.67° C 54% 1024.7 hPa 0 mm - - -
1777539007 16.67° C 55% 1024.7 hPa 0 mm - - -
1777538707 16.67° C 54% 1024.7 hPa 0 mm - - -
1777538407 16.11° C 55% 1024.7 hPa 0 mm - - -
1777538107 16.11° C 56% 1024.7 hPa 0 mm - - -
1777537807 16.11° C 55% 1024.7 hPa 0 mm - - -
1777537507 16.11° C 57% 1024.7 hPa 0 mm - - -
1777537207 15.56° C 58% 1024.7 hPa 0 mm - - -
1777536907 15.56° C 58% 1024.7 hPa 0 mm - - -
1777536607 15.56° C 58% 1024.7 hPa 0 mm - - -
1777536307 15.56° C 56% 1024.7 hPa 0 mm - - -
1777536007 15.56° C 63% 1024.7 hPa 0 mm - - -
1777535707 16.11° C 64% 1024.7 hPa 0 mm - - -
1777535407 16.11° C 71% 1024.7 hPa 0 mm - - -
1777535107 16.11° C 73% 1024.7 hPa 0 mm - - -
1777534807 15.56° C 74% 1024.7 hPa 0 mm - - -
1777534507 15.56° C 75% 1024.7 hPa 0 mm - - -

* Rain latest hour (hover to see other rain measurements)
** Current wind speed in m/s (hover to see current wind gust speed)